Location: Most
(50.5330°N, 13.6500°E)
Time: 06:40:04
(UTC+02:00)

ISS - Visible Passes

Search period start: 16 May 2026 00:00
Search period end: 26 May 2026 00:00
Orbit: 414 x 424 km, 51.6° (Epoch: 15 May)

Date Brightness Start Highest point End Pass type
(mag) Time Alt. Az. Time Alt. Az. Time Alt. Az.
16 May -1.0 01:01:02 10° W 01:01:11 11° W 01:01:11 11° W visible
16 May -3.7 22:36:19 10° WNW 22:39:41 82° NNE 22:42:11 17° E visible
17 May -2.3 00:13:13 10° W 00:15:06 26° WSW 00:15:06 26° WSW visible
17 May -3.6 21:48:38 10° W 21:51:59 73° N 21:55:20 10° E visible
17 May -3.6 23:25:28 10° W 23:28:44 50° SSW 23:29:02 48° S visible
18 May -3.8 22:37:47 10° WNW 22:41:06 67° SSW 22:42:58 24° ESE visible
19 May -1.4 00:15:07 10° W 00:15:54 14° WSW 00:15:54 14° WSW visible
19 May -3.8 21:50:05 10° WNW 21:53:26 85° SSW 21:56:48 10° ESE visible
19 May -2.4 23:27:07 10° W 23:29:50 25° SW 23:29:50 25° SW visible
20 May -2.9 22:39:17 10° W 22:42:23 36° SSW 22:43:47 24° SSE visible
21 May -3.4 21:51:31 10° W 21:54:46 50° SSW 21:57:46 12° SE visible
21 May -1.4 23:29:34 10° WSW 23:30:42 12° SW 23:30:42 12° SW visible
22 May -1.8 22:41:07 10° W 22:43:28 18° SW 22:44:42 15° S visible
23 May -2.3 21:53:04 10° W 21:55:54 26° SW 21:58:44 10° SSE visible
25 May -1.3 21:55:24 10° WSW 21:56:50 12° SW 21:58:16 10° SSW visible
